When you browse on this site, cookies collect data to enhance your experience and personalize the content and advertising you see.
Visit our Privacy Policy to learn more. By continuing to use the site, you agree to this use of cookies and data.
  • în România
  • Lista ţărilor
  • Pe 7 zile
  • Temperatura apei
  • Meteo pe hartă
  • Widget-uri
  • user-avatar
    Intrare

    Meteo pe oră la Uige

    Astăzi, 2 Iunie, Marţi

    Timp Temperatura Precipitaţii Vânt Presiune Umiditate
    00:00 +20°C° 0 mm 0 m/s 692 mmHg 91%
    01:00 +20°C° 0 mm 0 m/s 693 mmHg 85%
    02:00 +21°C° 0 mm 1 m/s 692 mmHg 88%
    03:00 +21°C° 0 mm 1 m/s 692 mmHg 92%
    04:00 +21°C° 0 mm 1 m/s 691 mmHg 95%
    05:00 +21°C° 0 mm 1 m/s 692 mmHg 93%
    06:00 +21°C° 0 mm 1 m/s 692 mmHg 91%
    07:00 +20°C° 0 mm 0 m/s 693 mmHg 92%
    08:00 +25°C° 0 mm 1 m/s 693 mmHg 78%
    09:00 +27°C° 0 mm 1 m/s 694 mmHg 65%
    10:00 +30°C° 0 mm 1 m/s 694 mmHg 51%
    11:00 +31°C° 0 mm 1 m/s 694 mmHg 46%
    12:00 +33°C° 0 mm 1 m/s 693 mmHg 40%
    13:00 +32°C° 0 mm 1 m/s 693 mmHg 40%
    14:00 +31°C° 0 mm 1 m/s 692 mmHg 45%
    15:00 +31°C° 0 mm 1 m/s 691 mmHg 49%
    16:00 +30°C° 0 mm 1 m/s 691 mmHg 54%
    17:00 +28°C° 0.1 mm 1 m/s 691 mmHg 58%
    18:00 +27°C° 0.1 mm 1 m/s 691 mmHg 63%
    19:00 +24°C° 0.1 mm 0 m/s 692 mmHg 67%
    20:00 +25°C° 0.1 mm 1 m/s 692 mmHg 73%
    21:00 +24°C° 0.1 mm 1 m/s 692 mmHg 79%
    22:00 +24°C° 0.1 mm 1 m/s 692 mmHg 84%
    23:00 +23°C° 0 mm 1 m/s 692 mmHg 88%

    Mâine, 3 Iunie, Miercuri

    Timp Temperatura Precipitaţii Vânt Presiune Umiditate
    00:00 +20°C° 0 mm 0 m/s 692 mmHg 92%
    01:00 +20°C° 0 mm 0 m/s 691 mmHg 96%
    02:00 +19°C° 0 mm 0 m/s 691 mmHg 97%
    03:00 +21°C° 0 mm 1 m/s 691 mmHg 98%
    04:00 +21°C° 0 mm 1 m/s 691 mmHg 99%
    05:00 +21°C° 0 mm 1 m/s 691 mmHg 96%
    06:00 +22°C° 0 mm 1 m/s 692 mmHg 94%
    07:00 +22°C° 0 mm 1 m/s 692 mmHg 92%
    08:00 +25°C° 0 mm 1 m/s 693 mmHg 80%
    09:00 +27°C° 0 mm 1 m/s 693 mmHg 67%
    10:00 +29°C° 0 mm 1 m/s 694 mmHg 54%
    11:00 +31°C° 0 mm 1 m/s 693 mmHg 50%
    12:00 +32°C° 0 mm 1 m/s 693 mmHg 45%
    13:00 +33°C° 0 mm 1 m/s 693 mmHg 40%
    14:00 +32°C° 0 mm 1 m/s 692 mmHg 44%
    15:00 +31°C° 0 mm 2 m/s 691 mmHg 49%
    16:00 +30°C° 0 mm 2 m/s 691 mmHg 53%
    17:00 +28°C° 0.6 mm 2 m/s 691 mmHg 66%
    18:00 +25°C° 0.6 mm 1 m/s 691 mmHg 78%
    19:00 +23°C° 0.6 mm 1 m/s 691 mmHg 90%
    20:00 +23°C° 0.1 mm 1 m/s 691 mmHg 92%
    21:00 +22°C° 0.1 mm 1 m/s 692 mmHg 95%
    22:00 +22°C° 0.1 mm 1 m/s 692 mmHg 97%
    23:00 +22°C° 0 mm 1 m/s 692 mmHg 97%

    Poimâine, 4 Iunie, Joi

    Timp Temperatura Precipitaţii Vânt Presiune Umiditate
    00:00 +22°C° 0 mm 1 m/s 692 mmHg 98%
    01:00 +21°C° 0 mm 1 m/s 692 mmHg 98%
    02:00 +21°C° 0 mm 1 m/s 691 mmHg 98%
    03:00 +21°C° 0 mm 1 m/s 691 mmHg 97%
    04:00 +22°C° 0 mm 1 m/s 691 mmHg 96%
    05:00 +22°C° 0 mm 1 m/s 692 mmHg 95%
    06:00 +22°C° 0 mm 1 m/s 692 mmHg 94%
    07:00 +22°C° 0 mm 1 m/s 692 mmHg 93%
    08:00 +23°C° 0 mm 1 m/s 693 mmHg 87%
    09:00 +25°C° 0 mm 1 m/s 693 mmHg 80%
    10:00 +26°C° 0 mm 1 m/s 694 mmHg 73%
    11:00 +28°C° 0.3 mm 1 m/s 693 mmHg 66%
    12:00 +30°C° 0.3 mm 1 m/s 693 mmHg 59%
    13:00 +32°C° 0.3 mm 1 m/s 693 mmHg 51%
    14:00 +31°C° 0.1 mm 1 m/s 692 mmHg 51%
    15:00 +31°C° 0.1 mm 1 m/s 691 mmHg 51%
    16:00 +31°C° 0.1 mm 1 m/s 691 mmHg 51%
    17:00 +28°C° 0.9 mm 1 m/s 691 mmHg 62%
    18:00 +26°C° 0.9 mm 1 m/s 691 mmHg 72%
    19:00 +22°C° 0.9 mm 0 m/s 691 mmHg 82%
    20:00 +22°C° 0.7 mm 0 m/s 692 mmHg 84%
    21:00 +21°C° 0.7 mm 0 m/s 692 mmHg 87%
    22:00 +21°C° 0.7 mm 0 m/s 692 mmHg 89%
    23:00 +21°C° 0.1 mm 0 m/s 692 mmHg 89%

    5 Iunie, Vineri

    Timp Temperatura Precipitaţii Vânt Presiune Umiditate
    00:00 +20°C° 0.1 mm 0 m/s 692 mmHg 89%
    01:00 +22°C° 0.1 mm 1 m/s 692 mmHg 89%
    02:00 +22°C° 0 mm 1 m/s 692 mmHg 89%
    03:00 +21°C° 0 mm 1 m/s 691 mmHg 89%
    04:00 +21°C° 0 mm 1 m/s 691 mmHg 90%
    05:00 +21°C° 0 mm 1 m/s 692 mmHg 88%
    06:00 +21°C° 0 mm 1 m/s 692 mmHg 87%
    07:00 +22°C° 0 mm 1 m/s 692 mmHg 86%
    08:00 +25°C° 0 mm 1 m/s 693 mmHg 73%
    09:00 +28°C° 0 mm 1 m/s 694 mmHg 61%
    10:00 +31°C° 0 mm 1 m/s 694 mmHg 49%
    11:00 +32°C° 0 mm 1 m/s 694 mmHg 45%
    12:00 +34°C° 0 mm 1 m/s 693 mmHg 41%
    13:00 +35°C° 0 mm 1 m/s 693 mmHg 37%
    14:00 +34°C° 0 mm 1 m/s 692 mmHg 42%
    15:00 +32°C° 0 mm 1 m/s 691 mmHg 48%
    16:00 +31°C° 0 mm 1 m/s 691 mmHg 53%
    17:00 +29°C° 0.2 mm 1 m/s 691 mmHg 61%
    18:00 +28°C° 0.2 mm 1 m/s 691 mmHg 69%
    19:00 +26°C° 0.2 mm 1 m/s 692 mmHg 77%
    20:00 +25°C° 0.7 mm 1 m/s 692 mmHg 81%
    21:00 +24°C° 0.7 mm 1 m/s 692 mmHg 86%
    22:00 +23°C° 0.7 mm 1 m/s 693 mmHg 91%
    23:00 +23°C° 0 mm 1 m/s 692 mmHg 92%

    6 Iunie, Sâmbătă

    Timp Temperatura Precipitaţii Vânt Presiune Umiditate
    00:00 +22°C° 0 mm 1 m/s 692 mmHg 93%
    01:00 +22°C° 0 mm 1 m/s 692 mmHg 95%
    02:00 +22°C° 0 mm 1 m/s 692 mmHg 96%
    03:00 +21°C° 0 mm 1 m/s 691 mmHg 97%
    04:00 +21°C° 0 mm 1 m/s 691 mmHg 98%
    05:00 +21°C° 0 mm 1 m/s 692 mmHg 97%
    06:00 +21°C° 0 mm 1 m/s 692 mmHg 95%
    07:00 +21°C° 0 mm 1 m/s 693 mmHg 93%
    08:00 +24°C° 0 mm 1 m/s 693 mmHg 80%
    09:00 +27°C° 0 mm 1 m/s 694 mmHg 66%
    10:00 +30°C° 0 mm 1 m/s 694 mmHg 53%
    11:00 +31°C° 0 mm 1 m/s 694 mmHg 48%
    12:00 +33°C° 0 mm 1 m/s 693 mmHg 42%
    13:00 +35°C° 0 mm 1 m/s 693 mmHg 37%
    14:00 +33°C° 0 mm 1 m/s 692 mmHg 43%
    15:00 +31°C° 0 mm 1 m/s 691 mmHg 49%
    16:00 +30°C° 0 mm 1 m/s 691 mmHg 56%
    17:00 +29°C° 0 mm 1 m/s 691 mmHg 60%
    18:00 +27°C° 0 mm 1 m/s 691 mmHg 64%
    19:00 +26°C° 0 mm 1 m/s 692 mmHg 68%
    20:00 +25°C° 0 mm 1 m/s 692 mmHg 70%
    21:00 +25°C° 0 mm 1 m/s 692 mmHg 72%
    22:00 +22°C° 0 mm 0 m/s 693 mmHg 74%
    23:00 +21°C° 0 mm 0 m/s 692 mmHg 77%

    7 Iunie, Duminică

    Timp Temperatura Precipitaţii Vânt Presiune Umiditate
    00:00 +20°C° 0 mm 0 m/s 692 mmHg 80%
    01:00 +19°C° 0 mm 0 m/s 691 mmHg 84%
    02:00 +19°C° 0 mm 0 m/s 691 mmHg 86%
    03:00 +19°C° 0 mm 0 m/s 691 mmHg 88%
    04:00 +20°C° 0 mm 1 m/s 691 mmHg 91%
    05:00 +20°C° 0 mm 1 m/s 691 mmHg 90%
    06:00 +21°C° 0 mm 1 m/s 691 mmHg 88%
    07:00 +21°C° 0 mm 1 m/s 692 mmHg 87%
    08:00 +24°C° 0 mm 1 m/s 693 mmHg 74%
    09:00 +28°C° 0 mm 1 m/s 693 mmHg 61%
    10:00 +31°C° 0 mm 1 m/s 694 mmHg 48%
    11:00 +32°C° 0 mm 1 m/s 693 mmHg 42%
    12:00 +33°C° 0 mm 1 m/s 693 mmHg 36%
    13:00 +35°C° 0 mm 1 m/s 692 mmHg 30%
    14:00 +34°C° 0 mm 1 m/s 692 mmHg 32%
    15:00 +34°C° 0 mm 1 m/s 691 mmHg 34%
    16:00 +33°C° 0 mm 1 m/s 691 mmHg 36%
    17:00 +31°C° 0 mm 1 m/s 691 mmHg 43%
    18:00 +27°C° 0 mm 0 m/s 691 mmHg 51%
    19:00 +24°C° 0 mm 0 m/s 691 mmHg 58%
    20:00 +23°C° 0 mm 0 m/s 691 mmHg 62%
    21:00 +22°C° 0 mm 0 m/s 692 mmHg 66%
    22:00 +21°C° 0 mm 0 m/s 692 mmHg 70%
    23:00 +20°C° 0 mm 0 m/s 692 mmHg 75%
    Arată mai mult